This is the latest recevied weather packets stored in our database for station/object AI5BL. If no packets are shown the sender has not sent any weather packets the latest 10 day(s).
| Time | Temp. | Humidity | Pressure | Rain* | Wind** | Luminosity | Snow |
|---|---|---|---|---|---|---|---|
| 1777651657 | 15.56° C | 97% | 1016.8 hPa | 6.1 mm | - | 250 W/m² | - |
| 1777651354 | 15° C | 96% | 1016.9 hPa | 0 mm | - | 59 W/m² | - |
| 1777651051 | 15° C | 96% | 1017.6 hPa | 0 mm | - | 59 W/m² | - |
| 1777650748 | 15° C | 96% | 1017.7 hPa | 0 mm | - | 59 W/m² | - |
| 1777650445 | 15° C | 96% | 1017.8 hPa | 0 mm | - | 59 W/m² | - |
| 1777650142 | 15° C | 96% | 1018.1 hPa | 0 mm | - | 59 W/m² | - |
| 1777649840 | 15° C | 96% | 1018.1 hPa | 0 mm | - | 59 W/m² | - |
| 1777649537 | 15° C | 96% | 1017.9 hPa | 0 mm | - | 59 W/m² | - |
| 1777649233 | 15° C | 96% | 1017.8 hPa | 0 mm | - | 59 W/m² | - |
| 1777648930 | 15° C | 96% | 1017.8 hPa | 0 mm | - | 59 W/m² | - |
| 1777648627 | 15° C | 96% | 1017.8 hPa | 0 mm | - | 59 W/m² | - |
| 1777648324 | 15° C | 96% | 1018.1 hPa | 0 mm | - | 59 W/m² | - |
| 1777648020 | 15° C | 96% | 1017.8 hPa | 0 mm | - | 58 W/m² | - |
| 1777647716 | 15° C | 95% | 1017.7 hPa | 0 mm | - | 59 W/m² | - |
| 1777647412 | 15° C | 96% | 1017.3 hPa | 0 mm | - | 54 W/m² | - |
| 1777647111 | 15° C | 96% | 1017 hPa | 0 mm | - | 55 W/m² | - |
| 1777646198 | 15° C | 95% | 1017 hPa | 0 mm | - | 63 W/m² | - |
| 1777645896 | 15° C | 96% | 1017 hPa | 0 mm | - | 72 W/m² | - |
| 1777645593 | 15° C | 96% | 1016.8 hPa | 0 mm | - | 98 W/m² | - |
| 1777645289 | 15° C | 96% | 1017 hPa | 0 mm | - | 90 W/m² | - |
| 1777644984 | 15° C | 97% | 1017 hPa | 0 mm | - | 75 W/m² | - |
| 1777644683 | 15° C | 97% | 1016.9 hPa | 0 mm | - | 67 W/m² | - |
| 1777644378 | 15° C | 97% | 1017 hPa | 0 mm | - | 58 W/m² | - |
| 1777644075 | 15° C | 96% | 1017.1 hPa | 0 mm | - | 54 W/m² | - |
| 1777643771 | 15° C | 96% | 1016.9 hPa | 0 mm | - | 55 W/m² | - |
* Rain latest hour (hover to see other rain measurements)
** Current wind speed in m/s (hover to see current wind gust speed)